Location: Songkhla
(7.2000°N, 100.6000°E)
Time: 19:02:22
(UTC+07:00)

ISS - Visible Passes

Search period start: 22 October 2017 00:00
Search period end: 01 November 2017 00:00
Orbit: 401 x 408 km, 51.6° (Epoch: 23 October)

Date Brightness Start Highest point End Pass type
(mag) Time Alt. Az. Time Alt. Az. Time Alt. Az.
23 Oct -0.7 18:24:31 10° W 18:26:46 17° SW 18:29:04 10° S visible
25 Oct -0.9 05:09:09 10° S 05:11:36 20° SE 05:14:02 10° ENE visible
27 Oct -3.9 05:00:36 15° SSW 05:03:14 84° SE 05:06:27 10° NE visible
28 Oct -1.0 04:12:40 17° ENE 04:12:40 17° ENE 04:13:44 10° ENE visible
29 Oct -1.4 04:57:03 12° N 04:57:03 12° N 04:57:28 10° N visible
